Location: Feigenhofen
(48.4939°N, 10.7793°E)
Time: 21:47:56
(UTC+00:00)

Cosmos 1378 Rocket - Pass Details

Date: 26 May 2022
Orbit: 601 x 627 km, 82.5° (Epoch: 24 June)

Event Time Altitude Azimuth Distance (km) Brightness Sun altitude
Exits shadow 00:22:20 33° 238° (WSW) 1,051 4.3 -18.8°
Maximum altitude 00:23:46 45° 285° (WNW) 860 4.2 -18.7°
Drops below altitude 10° 00:28:02 10° 358° (N) 2,011 7.3 -18.5°
Sets 00:30:23 0° 5° (N) 2,925 8.5 -18.3°
